Terug naar catalogus

PEGASUS DEB

ActiefPO
NORAD 39322·DEBRIS·🇺🇸 United States

Gelanceerd May 19, 1994 vanaf Vandenberg Space Force Base

Loading…

Volgende Passages (komende 24 uur)

TLE

VerouderdSource: Space-Track

Epoch: Sep 2, 2026, 04:05 UTC

1 39322U 94029AFH 26245.17076978  .00002230  00000-0  37398-3 0  9997
2 39322  81.9241  47.1121 0232533 102.2563 260.4776 14.52923960694001

Volg PEGASUS DEB in realtime met AllMySat

Download on the App Store